[[{"header":{"parameterUnit":"m.s-1","parameterCategory":2,"la1":30.2991,"la2":30.254,"lo1":-89.0895,"lo2":-89.0444,"dy":0.0017,"dx":0.0017,"nx":28,"ny":28,"refTime":"2025-02-08T03:00:00:Z","depth":"0","parameterNumber":2,"parameterNumberName":"U-component_of_CURRENTS"},"data":[0,0,0,0,0,0,0,0,0,0,0,0,0,0,0,0,0,0,0,0,0,0,0,0,0,0,0,0,0,0,0,0,0,0,0,0,0,0,0,0,0,0,0,0,0,0,0,0,0,0,0,0,0,0,0,0,0,0,0.2135,0.2136,0,0.2173,0.2173,0.2174,0.2168,0.2167,0.2167,0.2166,0.2191,0.2192,0.2194,0,0,0,0,0,0,0,0,0,0,0,0,0,0.2073,0.2074,0.2135,0.2136,0.2137,0.2173,0.2173,0.2174,0.2168,0.2167,0.2167,0.2166,0.2191,0.2192,0.2194,0,0,0,0,0,0,0,0,0,0,0,0,0,0.2103,0.2074,0.2135,0.2139,0.2139,0.2173,0.2174,0.2174,0.2168,0.2167,0.2166,0.2166,0.219,0.2192,0.2194,0.2222,0,0,0.2199,0.22,0,0,0,0,0,0,0,0,0.2102,0.2105,0.2138,0.2138,0.2139,0.2166,0.2161,0.219,0.2168,0.2156,0.2166,0.2165,0.2183,0.2185,0.2193,0.2223,0.2224,0.22,0.2201,0.2201,0.2202,0,0,0,0,0,0,0,0.2099,0.2104,0.2149,0.2138,0.2139,0.2143,0.2147,0.2166,0.2173,0.2157,0.2157,0.2163,0.2183,0.2191,0.2194,0.2224,0.22,0.2201,0.2202,0.2203,0.2299,0.23,0,0,0,0,0,0,0.2097,0.2102,0.2148,0.2151,0.2119,0.2145,0.2149,0.2157,0.2173,0.2175,0.2164,0.2163,0.2189,0.2191,0.2194,0.2244,0.2201,0.2203,0.2204,0.2297,0.2299,0.2301,0,0,0,0,0,0,0.2096,0.2101,0.2147,0.2128,0.2134,0.2147,0.2157,0.2159,0.2168,0.2178,0.2179,0.2172,0.2188,0.2192,0.2223,0.2244,0.2204,0.2206,0.2295,0.2298,0.23,0.2333,0,0,0,0,0,0,0.2094,0.21,0.2108,0.2128,0.2135,0.2173,0.2158,0.216,0.2174,0.2173,0.2186,0.2187,0.2188,0.2221,0.2225,0.2246,0.2207,0.2294,0.2296,0.2299,0.233,0.2336,0.2341,0,0,0,0,0,0.2092,0.2103,0.2108,0.2114,0.2144,0.2174,0.2179,0.2184,0.2175,0.2188,0.2199,0.2187,0.2241,0.2224,0.2228,0.225,0.2292,0.2296,0.2299,0.2328,0.2335,0.2341,0,0,0,0,0,0,0.2075,0.2104,0.211,0.2128,0.2154,0.2174,0.2185,0.219,0.2208,0.2206,0.2208,0.2211,0.2246,0.2248,0.2229,0.2287,0.2264,0.2269,0.2285,0.2292,0.2297,0.2286,0.2208,0,0,0,0,0,0.2078,0.2095,0.2124,0.2139,0.2153,0.2171,0.2183,0.2191,0.2209,0.2216,0.2226,0.2242,0.2265,0.2277,0.2296,0.233,0.2374,0.2348,0.2353,0.2358,0.2354,0.2442,0.2455,0.2311,0.2311,0.2311,0,0,0.2073,0.2093,0.2101,0.2137,0.2155,0.2181,0.2176,0.2201,0.222,0.2217,0.2246,0.2262,0.2279,0.2317,0.2332,0.232,0.2432,0.2362,0.2366,0.2359,0.2447,0.2461,0.2473,0.2314,0.2313,0.2313,0,0,0.2077,0.2095,0.2113,0.2139,0.2174,0.219,0.2199,0.2229,0.224,0.2275,0.2279,0.2305,0.2341,0.2357,0.2369,0.2418,0.2459,0.243,0.2449,0.2535,0.2548,0.2559,0.2674,0.2696,0.2432,0.2432,0.2432,0,0.2069,0.2099,0.2123,0.2152,0.2173,0.2195,0.2221,0.2243,0.2277,0.2293,0.2288,0.2352,0.2357,0.2408,0.2419,0.2429,0.2501,0.242,0.2543,0.2555,0.2566,0.2681,0.2704,0.2434,0.2434,0.2434,0.2434,0,0.2091,0.2118,0.2132,0.2176,0.2203,0.223,0.2265,0.2291,0.2306,0.2327,0.2379,0.2401,0.2438,0.2447,0.2444,0.2524,0.2562,0.2541,0.2524,0.2582,0.27,0.2724,0.2437,0.2437,0.2436,0.2435,0,0,0.2066,0.2133,0.2139,0.2164,0.2218,0.2242,0.2283,0.2327,0.2369,0.2392,0.2457,0.2471,0.2487,0.2502,0.2516,0.2575,0.2717,0.2591,0.2595,0.2704,0.2953,0.2961,0.2988,0.2731,0.2734,0.2737,0.302,0,0.2075,0.2127,0.216,0.2207,0.2238,0.2276,0.2318,0.236,0.2408,0.2482,0.2502,0.2574,0.251,0.256,0.2599,0.2699,0.2774,0.2644,0.2881,0.2889,0.2886,0.3012,0.2944,0.3188,0.3043,0.3047,0.305,0,0.2085,0.2122,0.2169,0.2234,0.2251,0.2279,0.236,0.2406,0.2501,0.2547,0.2603,0.2653,0.2739,0.2692,0.2859,0.279,0.2866,0.293,0.2942,0.2946,0.2939,0.3099,0.3236,0.3151,0.3086,0.3083,0.308,0,0.206,0.2126,0.2161,0.2184,0.2262,0.2285,0.2326,0.2414,0.2483,0.2614,0.2704,0.2784,0.2881,0.2961,0.3054,0.2994,0.3266,0.3205,0.3285,0.3288,0.327,0.3265,0.3342,0.3332,0.3331,0.333,0.333,0,0.206,0.2088,0.215,0.2171,0.2224,0.2276,0.2359,0.2416,0.2546,0.2648,0.2738,0.2858,0.2956,0.3106,0.315,0.3309,0.3348,0.3326,0.3368,0.3284,0.3277,0.323,0.3182,0.3341,0.3339,0.3337,0.3335,0,0.2032,0.2074,0.2117,0.2187,0.2215,0.225,0.2374,0.2438,0.257,0.2726,0.2787,0.2976,0.3171,0.3279,0.3468,0.3465,0.3527,0.3635,0.3544,0.3566,0.3514,0.3471,0.3488,0.3374,0.379,0.3792,0.3794,0,0.2025,0.2045,0.2119,0.2146,0.2176,0.2249,0.2303,0.2429,0.251,0.2784,0.2854,0.3118,0.3261,0.3563,0.3649,0.3801,0.3634,0.3807,0.3641,0.3539,0.3523,0.3343,0.323,0.3666,0.3666,0.3666,0.3667,0,0.2013,0.2034,0.2071,0.2137,0.2182,0.2253,0.2336,0.2411,0.2577,0.2728,0.2942,0.3101,0.3409,0.3552,0.3764,0.3819,0.364,0.3818,0.3739,0.3463,0.3248,0.3149,0.3469,0.367,0.367,0.367,0.3669,0.3669,0.2,0.2021,0.2077,0.2134,0.2181,0.2244,0.2282,0.2384,0.2528,0.2721,0.2919,0.3122,0.3412,0.3704,0.3742,0.3784,0.3686,0.3698,0.3679,0.3521,0.3318,0.3655,0.3861,0.3862,0.3862,0.3863,0.3863,0,0.1997,0.2029,0.2078,0.2136,0.2159,0.2209,0.2294,0.2322,0.2431,0.2636,0.2814,0.3148,0.3366,0.3554,0.374,0.3661,0.3452,0.3575,0.3295,0.3203,0.3566,0.346,0.3554,0.3554,0.3554,0.3554,0.3554,0.3554,0.2002,0.2044,0.2077,0.2115,0.2137,0.2155,0.2184,0.2227,0.2338,0.2521,0.2689,0.2885,0.3265,0.3624,0.3647,0.3561,0.3251,0.3177,0.3089,0.3351,0.3358,0.3364,0.3251,0.3299,0.3299,0.2585,0.258,0.2576]},{"header":{"parameterUnit":"m.s-1","parameterCategory":2,"la1":30.2991,"la2":30.254,"lo1":-89.0895,"lo2":-89.0444,"dy":0.0017,"dx":0.0017,"nx":28,"ny":28,"refTime":"2025-02-08T03:00:00:Z","depth":"0","parameterNumber":3,"parameterNumberName":"V-component_of_CURRENTS"},"data":[0,0,0,0,0,0,0,0,0,0,0,0,0,0,0,0,0,0,0,0,0,0,0,0,0,0,0,0,0,0,0,0,0,0,0,0,0,0,0,0,0,0,0,0,0,0,0,0,0,0,0,0,0,0,0,0,0,0,0.0062,0.0061,0,-0.0032,-0.0034,-0.0035,-0.0094,-0.0094,-0.0095,-0.0095,-0.0219,-0.0222,-0.0224,0,0,0,0,0,0,0,0,0,0,0,0,0,0.016,0.0159,0.0062,0.006,0.0059,-0.0032,-0.0034,-0.0035,-0.0094,-0.0094,-0.0095,-0.0095,-0.0218,-0.0221,-0.0225,0,0,0,0,0,0,0,0,0,0,0,0,0,0.0097,0.0158,0.0062,0.0019,0.0014,-0.0032,-0.0034,-0.0035,-0.0094,-0.0094,-0.0095,-0.0095,-0.0217,-0.0221,-0.0225,-0.0242,0,0,-0.0239,-0.0241,0,0,0,0,0,0,0,0,0.0101,0.0093,0.0026,0.0021,0.0016,-0.0052,-0.0044,-0.0106,-0.0094,-0.0053,-0.0095,-0.0096,-0.0165,-0.0174,-0.019,-0.0247,-0.0253,-0.0239,-0.0242,-0.0244,-0.0245,0,0,0,0,0,0,0,0.0105,0.0097,0.0025,0.0025,0.0019,-0.0007,-0.0016,-0.0056,-0.0105,-0.0056,-0.0061,-0.0072,-0.0169,-0.0185,-0.0193,-0.0255,-0.0239,-0.0243,-0.0246,-0.0247,-0.0346,-0.0346,0,0,0,0,0,0,0.0118,0.0101,0.0028,0.0022,0.0058,-0.0008,-0.0018,-0.003,-0.0104,-0.0116,-0.0071,-0.0074,-0.0178,-0.0188,-0.0198,-0.0226,-0.0244,-0.0248,-0.025,-0.0346,-0.0346,-0.0346,0,0,0,0,0,0,0.0121,0.0113,0.0031,0.0059,0.0047,-0.0009,-0.0021,-0.0031,-0.0049,-0.0115,-0.0128,-0.0079,-0.0178,-0.0192,-0.0232,-0.0231,-0.025,-0.0254,-0.0346,-0.0346,-0.0346,-0.028,0,0,0,0,0,0,0.0124,0.0114,0.0113,0.006,0.0046,0.0011,-0.0021,-0.0033,-0.0055,-0.006,-0.0126,-0.0138,-0.018,-0.0225,-0.0236,-0.0238,-0.0257,-0.0346,-0.0346,-0.0346,-0.0282,-0.0278,-0.0274,0,0,0,0,0,0.0128,0.0128,0.0113,0.0104,0.0045,0.0011,0.0002,-0.004,-0.0055,-0.0058,-0.0104,-0.0136,-0.0233,-0.0228,-0.0242,-0.0244,-0.0346,-0.0346,-0.0346,-0.0284,-0.0279,-0.0274,0,0,0,0,0,0,0.0168,0.012,0.0103,0.0088,0.0056,0.0001,-0.0007,-0.0033,-0.0072,-0.0077,-0.0136,-0.0151,-0.0186,-0.0223,-0.0217,-0.0273,-0.0295,-0.0297,-0.0243,-0.0238,-0.0234,-0.0226,-0.0261,0,0,0,0,0,0.0178,0.0166,0.0118,0.0108,0.0095,0.0047,0.0029,0.0002,-0.004,-0.0058,-0.0103,-0.0153,-0.0196,-0.0222,-0.0264,-0.0294,-0.0306,-0.0305,-0.0301,-0.0297,-0.03,-0.0312,-0.0308,-0.0346,-0.0346,-0.0346,0,0,0.019,0.0163,0.0155,0.0116,0.0088,0.0071,0.0035,0.0012,-0.0004,-0.0065,-0.0096,-0.0138,-0.02,-0.0234,-0.0253,-0.0266,-0.0287,-0.0297,-0.0293,-0.0298,-0.0311,-0.0307,-0.0304,-0.0346,-0.0346,-0.0346,0,0,0.0208,0.0186,0.0182,0.016,0.0123,0.0094,0.0092,0.0043,0.0021,-0.0012,-0.0061,-0.0101,-0.0164,-0.021,-0.0241,-0.0239,-0.0262,-0.0252,-0.0229,-0.024,-0.0236,-0.0234,-0.0216,-0.0212,-0.0252,-0.0252,-0.0252,0,0.0224,0.0211,0.0177,0.0168,0.0153,0.0109,0.0104,0.0075,0.002,0.0007,-0.0012,-0.0098,-0.0154,-0.0197,-0.0207,-0.023,-0.0228,-0.024,-0.0232,-0.023,-0.0229,-0.0211,-0.0208,-0.0249,-0.0249,-0.025,-0.025,0,0.0235,0.0227,0.0225,0.0199,0.0181,0.0172,0.013,0.0114,0.0086,0.0056,0.0019,-0.005,-0.01,-0.0126,-0.0175,-0.0196,-0.0193,-0.022,-0.0239,-0.0221,-0.0203,-0.0201,-0.0245,-0.0246,-0.0247,-0.0247,0,0,0.0264,0.0238,0.0238,0.0239,0.02,0.019,0.017,0.0142,0.0152,0.0091,0.0107,-0.0004,-0.003,-0.0068,-0.0124,-0.0151,-0.0143,-0.0183,-0.0185,-0.0154,-0.0139,-0.0142,-0.014,-0.0163,-0.0163,-0.0163,-0.012,0,0.0283,0.0287,0.026,0.0266,0.0267,0.0228,0.0224,0.0195,0.0176,0.0188,0.0114,0.011,-0.0009,-0.0006,-0.0065,-0.0106,-0.0139,-0.0151,-0.0172,-0.0172,-0.017,-0.0139,-0.016,-0.0124,-0.0118,-0.0118,-0.0117,0,0.0301,0.0303,0.0314,0.0315,0.0313,0.031,0.0313,0.0308,0.0299,0.0295,0.0258,0.0225,0.0171,0.0093,-0.0011,-0.0007,-0.0082,-0.0126,-0.0126,-0.0155,-0.0173,-0.015,-0.0121,-0.0343,-0.0114,-0.0115,-0.0115,0,0.0346,0.0342,0.0358,0.0354,0.0346,0.0349,0.0351,0.0342,0.0386,0.0391,0.046,0.0348,0.0378,0.0235,0.0106,0.0061,0.0031,-0.0035,-0.0113,-0.0112,-0.015,-0.0153,-0.0334,-0.0113,-0.0114,-0.0114,-0.0114,0,0.0379,0.0394,0.0386,0.0397,0.0442,0.0411,0.0478,0.0466,0.0523,0.0633,0.0535,0.0627,0.0419,0.0374,0.019,0.0065,0.0089,-0.0099,-0.0105,-0.0125,-0.0126,-0.0339,-0.0459,-0.0112,-0.0112,-0.0113,-0.0113,0,0.043,0.0418,0.0447,0.0452,0.0466,0.0505,0.0591,0.0658,0.0694,0.0853,0.0884,0.0874,0.0813,0.0599,0.0428,0.0231,-0.0041,0.0019,0.0025,0.0015,-0.0297,-0.041,-0.0574,-0.0661,-0.0061,-0.0061,-0.0061,0,0.0459,0.0476,0.0509,0.0558,0.0567,0.0635,0.0706,0.0741,0.0851,0.1026,0.1136,0.1137,0.1165,0.0905,0.0545,0.0241,0.0008,0.0027,-0.0099,-0.031,-0.0442,-0.053,-0.0599,-0.0106,-0.0106,-0.0107,-0.0107,0,0.0529,0.0536,0.0572,0.0683,0.0755,0.0855,0.0969,0.1086,0.1193,0.1341,0.1547,0.1591,0.1343,0.1043,0.061,0.0365,-0.0139,0.0013,-0.0218,-0.0505,-0.06,-0.0686,-0.0119,-0.0109,-0.0109,-0.0109,-0.0108,-0.0108,0.06,0.0655,0.0729,0.0837,0.0934,0.1103,0.1225,0.1375,0.1591,0.1833,0.1851,0.1937,0.1444,0.0851,0.0514,-0.0155,-0.0149,-0.0378,-0.0493,-0.0558,-0.0679,-0.0101,-0.01,-0.01,-0.01,-0.01,-0.0099,0,0.0718,0.079,0.0896,0.1045,0.1193,0.1212,0.1431,0.1577,0.1853,0.2011,0.2167,0.1937,0.1358,0.0725,-0.0151,-0.0585,-0.0772,-0.0838,-0.1006,-0.1049,-0.0545,-0.0588,-0.0678,-0.0678,-0.0678,-0.0677,-0.0677,-0.0677,0.0797,0.0933,0.0997,0.1272,0.1379,0.1594,0.1729,0.1928,0.2066,0.2255,0.2253,0.2207,0.1677,0.0159,-0.0863,-0.1096,-0.1426,-0.1487,-0.1621,-0.1337,-0.1304,-0.1273,-0.1345,-0.1592,-0.1593,-0.2089,-0.2095,-0.2099]}],[{"header":{"parameterUnit":"m.s-1","parameterCategory":2,"la1":30.2991,"la2":30.254,"lo1":-89.0895,"lo2":-89.0444,"dy":0.0017,"dx":0.0017,"nx":28,"ny":28,"refTime":"2025-02-08T03:00:00:Z","depth":"2","parameterNumber":2,"parameterNumberName":"U-component_of_CURRENTS"},"data":[0,0,0,0,0,0,0,0,0,0,0,0,0,0,0,0,0,0,0,0,0,0,0,0,0,0,0,0,0,0,0,0,0,0,0,0,0,0,0,0,0,0,0,0,0,0,0,0,0,0,0,0,0,0,0,0,0,0,0.1704,0.1705,0,0.1745,0.1745,0.1745,0.1757,0.1757,0.1757,0.1757,0.1789,0.179,0.179,0,0,0,0,0,0,0,0,0,0,0,0,0,0.1634,0.1636,0.1704,0.1705,0.1706,0.1745,0.1745,0.1745,0.1757,0.1757,0.1757,0.1757,0.1788,0.1789,0.179,0,0,0,0,0,0,0,0,0,0,0,0,0,0.1667,0.1636,0.1704,0.1718,0.172,0.1745,0.1745,0.1745,0.1757,0.1757,0.1757,0.1757,0.1788,0.1789,0.1791,0.1799,0,0,0.1794,0.1795,0,0,0,0,0,0,0,0,0.1665,0.1669,0.1715,0.1717,0.1719,0.1748,0.1732,0.1764,0.1757,0.1741,0.1757,0.1757,0.1776,0.1778,0.1783,0.18,0.1802,0.1795,0.1795,0.1796,0.1796,0,0,0,0,0,0,0,0.1663,0.1667,0.1718,0.1716,0.1718,0.1721,0.1726,0.1738,0.1756,0.1742,0.1744,0.1752,0.1776,0.1781,0.1784,0.1802,0.1795,0.1796,0.1797,0.1797,0.189,0.1892,0,0,0,0,0,0,0.1662,0.1665,0.1717,0.172,0.1694,0.1723,0.1727,0.1737,0.1756,0.176,0.1752,0.1752,0.1779,0.1782,0.1785,0.1847,0.1796,0.1797,0.1798,0.1888,0.189,0.1892,0,0,0,0,0,0,0.1661,0.1667,0.1715,0.1695,0.1702,0.1724,0.1734,0.1738,0.1752,0.1764,0.1767,0.1764,0.1779,0.1783,0.1813,0.1846,0.1798,0.1799,0.1886,0.1889,0.1891,0.1938,0,0,0,0,0,0,0.1659,0.1666,0.1674,0.1695,0.1703,0.174,0.1735,0.1739,0.1757,0.1759,0.1775,0.1778,0.178,0.1812,0.1815,0.1847,0.18,0.1884,0.1887,0.189,0.1934,0.1942,0.1948,0,0,0,0,0,0.1656,0.1668,0.1674,0.1681,0.1713,0.1741,0.1745,0.1759,0.1758,0.177,0.1786,0.1777,0.1834,0.1814,0.1817,0.185,0.1883,0.1887,0.189,0.1931,0.1941,0.1948,0,0,0,0,0,0,0.1643,0.1671,0.1678,0.1699,0.1723,0.1744,0.1757,0.1765,0.1786,0.1789,0.1794,0.1798,0.1836,0.1839,0.1816,0.1889,0.1859,0.1864,0.189,0.1898,0.1905,0.1914,0.1801,0,0,0,0,0,0.1644,0.166,0.1688,0.1705,0.1718,0.1738,0.1752,0.1764,0.1784,0.1793,0.1807,0.1828,0.1854,0.1871,0.1887,0.1925,0.1949,0.1952,0.1959,0.1965,0.1976,0.2037,0.2051,0.1905,0.1905,0.1905,0,0,0.1642,0.1661,0.1669,0.1703,0.1721,0.1752,0.1746,0.1773,0.1801,0.1794,0.1834,0.1847,0.1867,0.1911,0.193,0.1919,0.2023,0.197,0.1974,0.1982,0.2043,0.2057,0.2069,0.1907,0.1907,0.1907,0,0,0.1651,0.1666,0.1686,0.171,0.1745,0.1763,0.1774,0.1805,0.1821,0.1861,0.1866,0.1901,0.1937,0.1963,0.198,0.2037,0.2051,0.2045,0.2095,0.2155,0.2167,0.2178,0.2241,0.2257,0.2056,0.2056,0.2056,0,0.1646,0.1681,0.1696,0.1727,0.1754,0.1771,0.1806,0.1827,0.1865,0.189,0.1882,0.1959,0.1965,0.2033,0.2054,0.2053,0.2092,0.2058,0.2164,0.2175,0.2186,0.2247,0.2265,0.2059,0.2059,0.2058,0.2058,0,0.1676,0.1707,0.1723,0.177,0.1799,0.1831,0.1867,0.1894,0.1916,0.1947,0.2011,0.2031,0.2081,0.2092,0.209,0.2176,0.2181,0.2158,0.214,0.2204,0.2264,0.2282,0.2063,0.2062,0.2061,0.206,0,0,0.1656,0.1729,0.1736,0.1767,0.1827,0.1851,0.1903,0.196,0.2008,0.2042,0.2113,0.2153,0.2171,0.2192,0.2201,0.2252,0.2356,0.2245,0.2246,0.2304,0.2506,0.2457,0.2471,0.2357,0.236,0.2362,0.2523,0,0.1677,0.1739,0.1775,0.1837,0.1874,0.1913,0.1962,0.2015,0.2068,0.2138,0.2173,0.2244,0.2209,0.225,0.2293,0.2348,0.2403,0.2316,0.2439,0.2443,0.2389,0.2489,0.2295,0.2417,0.254,0.2543,0.2545,0,0.17,0.1739,0.1806,0.1879,0.1899,0.1937,0.2026,0.2076,0.2173,0.2221,0.2295,0.2333,0.2424,0.2377,0.2504,0.2456,0.2486,0.2515,0.2522,0.2471,0.2426,0.2372,0.2444,0.2573,0.2571,0.2569,0.2567,0,0.1681,0.176,0.1815,0.1842,0.1928,0.196,0.2003,0.21,0.217,0.2289,0.2377,0.2456,0.2542,0.2582,0.2635,0.2591,0.2771,0.2715,0.2699,0.2696,0.2551,0.253,0.28,0.28,0.28,0.2799,0.2799,0,0.1692,0.173,0.1808,0.1834,0.1898,0.1957,0.2053,0.2104,0.2229,0.2325,0.2422,0.2522,0.2603,0.2703,0.2702,0.2772,0.2829,0.2738,0.2744,0.2563,0.2542,0.268,0.2663,0.2805,0.2804,0.2803,0.2802,0,0.1667,0.1724,0.1779,0.1861,0.1894,0.1934,0.2067,0.2132,0.2269,0.2403,0.2455,0.2628,0.2755,0.2822,0.2922,0.2887,0.2931,0.2928,0.2714,0.2691,0.2799,0.2784,0.2946,0.2946,0.2945,0.2945,0.2945,0,0.1662,0.169,0.1782,0.1821,0.1858,0.1944,0.2001,0.2125,0.2196,0.2446,0.2489,0.2698,0.2785,0.2948,0.2932,0.2963,0.2973,0.2798,0.2661,0.283,0.282,0.2804,0.279,0.2501,0.2497,0.2494,0.2491,0,0.1639,0.1673,0.1726,0.1802,0.1857,0.1945,0.2024,0.2072,0.2223,0.2347,0.2499,0.2608,0.279,0.2753,0.2828,0.2796,0.2773,0.2736,0.3006,0.248,0.242,0.2406,0.2404,0.2464,0.2467,0.2469,0.247,0.2471,0.1623,0.1649,0.1721,0.1788,0.1852,0.1907,0.1938,0.2012,0.2105,0.2221,0.2365,0.2465,0.2561,0.2571,0.2521,0.2503,0.266,0.2545,0.2551,0.2561,0.2466,0.2408,0.2434,0.2436,0.2438,0.244,0.2442,0,0.16,0.1643,0.17,0.1772,0.1801,0.187,0.1929,0.1915,0.1937,0.207,0.2161,0.2074,0.2113,0.221,0.2146,0.2165,0.2104,0.2085,0.1983,0.2015,0.2042,0.1915,0.174,0.1737,0.1734,0.1732,0,0,0.1597,0.1628,0.1654,0.1699,0.1748,0.1758,0.1764,0.1719,0.1767,0.1765,0.1817,0.2003,0.2155,0.19,0.1897,0.1809,0.1883,0.1748,0.2323,0.2236,0.2258,0.2336,0.2182,0,0,0,0,0]},{"header":{"parameterUnit":"m.s-1","parameterCategory":2,"la1":30.2991,"la2":30.254,"lo1":-89.0895,"lo2":-89.0444,"dy":0.0017,"dx":0.0017,"nx":28,"ny":28,"refTime":"2025-02-08T03:00:00:Z","depth":"2","parameterNumber":3,"parameterNumberName":"V-component_of_CURRENTS"},"data":[0,0,0,0,0,0,0,0,0,0,0,0,0,0,0,0,0,0,0,0,0,0,0,0,0,0,0,0,0,0,0,0,0,0,0,0,0,0,0,0,0,0,0,0,0,0,0,0,0,0,0,0,0,0,0,0,0,0,-0.0221,-0.0222,0,-0.028,-0.028,-0.0281,-0.0323,-0.0324,-0.0324,-0.0324,-0.0427,-0.043,-0.0432,0,0,0,0,0,0,0,0,0,0,0,0,0,-0.0186,-0.0186,-0.0221,-0.0222,-0.0222,-0.028,-0.028,-0.0281,-0.0323,-0.0324,-0.0324,-0.0324,-0.0427,-0.0429,-0.0432,0,0,0,0,0,0,0,0,0,0,0,0,0,-0.0219,-0.0186,-0.0221,-0.025,-0.0253,-0.0279,-0.028,-0.0282,-0.0323,-0.0324,-0.0324,-0.0324,-0.0426,-0.0429,-0.0433,-0.0447,0,0,-0.0444,-0.0446,0,0,0,0,0,0,0,0,-0.0217,-0.022,-0.0245,-0.0248,-0.0251,-0.0294,-0.0306,-0.0339,-0.0323,-0.0297,-0.0324,-0.0325,-0.0386,-0.0393,-0.0403,-0.0452,-0.0456,-0.0445,-0.0447,-0.0448,-0.0449,0,0,0,0,0,0,0,-0.0215,-0.0218,-0.0245,-0.0245,-0.0249,-0.0274,-0.0278,-0.0312,-0.034,-0.0299,-0.0303,-0.0308,-0.0388,-0.04,-0.0406,-0.0458,-0.0444,-0.0448,-0.045,-0.0451,-0.0533,-0.0533,0,0,0,0,0,0,-0.0204,-0.0216,-0.0243,-0.0247,-0.0234,-0.0274,-0.0279,-0.028,-0.0339,-0.0347,-0.0307,-0.031,-0.0393,-0.0402,-0.041,-0.043,-0.0448,-0.0452,-0.0454,-0.0533,-0.0533,-0.0533,0,0,0,0,0,0,-0.0202,-0.0205,-0.0241,-0.0232,-0.0239,-0.0273,-0.0275,-0.0281,-0.0293,-0.0344,-0.0354,-0.0312,-0.0394,-0.0405,-0.0438,-0.0435,-0.0453,-0.0457,-0.0533,-0.0533,-0.0533,-0.0471,0,0,0,0,0,0,-0.0201,-0.0204,-0.0202,-0.0231,-0.0239,-0.025,-0.0275,-0.0282,-0.0295,-0.0299,-0.0351,-0.0361,-0.0395,-0.0432,-0.0442,-0.044,-0.046,-0.0533,-0.0533,-0.0533,-0.0473,-0.0468,-0.0465,0,0,0,0,0,-0.02,-0.019,-0.0201,-0.0205,-0.0233,-0.025,-0.0255,-0.0283,-0.0295,-0.0296,-0.0333,-0.036,-0.0439,-0.0435,-0.0446,-0.0446,-0.0533,-0.0533,-0.0533,-0.0475,-0.0469,-0.0465,0,0,0,0,0,0,-0.0171,-0.0195,-0.0207,-0.0205,-0.0224,-0.0256,-0.0259,-0.0278,-0.0307,-0.0311,-0.036,-0.0372,-0.0399,-0.0432,-0.0427,-0.0469,-0.049,-0.0492,-0.0442,-0.0437,-0.0433,-0.0417,-0.0463,0,0,0,0,0,-0.0164,-0.0165,-0.0191,-0.0189,-0.0196,-0.0227,-0.0237,-0.0254,-0.0283,-0.0296,-0.0333,-0.0373,-0.0407,-0.0428,-0.0462,-0.0487,-0.051,-0.0494,-0.049,-0.0486,-0.0481,-0.0512,-0.051,-0.0533,-0.0533,-0.0533,0,0,-0.0152,-0.0165,-0.0166,-0.0183,-0.0201,-0.0202,-0.0234,-0.0243,-0.0247,-0.0304,-0.032,-0.0359,-0.041,-0.0435,-0.0451,-0.0462,-0.0491,-0.0486,-0.0482,-0.0479,-0.0512,-0.0509,-0.0507,-0.0533,-0.0533,-0.0533,0,0,-0.0127,-0.014,-0.0133,-0.0144,-0.0164,-0.0182,-0.0182,-0.0211,-0.0226,-0.0248,-0.0289,-0.0323,-0.0375,-0.0409,-0.0433,-0.0428,-0.0466,-0.0443,-0.0412,-0.0442,-0.0441,-0.0439,-0.0456,-0.0457,-0.0443,-0.0443,-0.0443,0,-0.0113,-0.0106,-0.0133,-0.0127,-0.0131,-0.0168,-0.0158,-0.0177,-0.0214,-0.0225,-0.0244,-0.0317,-0.0361,-0.0392,-0.0394,-0.0418,-0.0439,-0.0424,-0.0436,-0.0435,-0.0435,-0.0453,-0.0455,-0.044,-0.044,-0.0441,-0.0441,0,-0.0083,-0.0078,-0.0072,-0.0078,-0.0085,-0.0082,-0.0109,-0.0119,-0.0143,-0.0169,-0.0201,-0.026,-0.0302,-0.0325,-0.0362,-0.0383,-0.0399,-0.0423,-0.0443,-0.0429,-0.0449,-0.0452,-0.0436,-0.0437,-0.0438,-0.0438,0,0,-0.0049,-0.0051,-0.0049,-0.0039,-0.0057,-0.0057,-0.006,-0.0074,-0.007,-0.0118,-0.0116,-0.0192,-0.0226,-0.0256,-0.0306,-0.0341,-0.036,-0.038,-0.0383,-0.0388,-0.0418,-0.0439,-0.0444,-0.0388,-0.0388,-0.0388,-0.0429,0,-0.0017,0.0011,-0.0003,0.0023,0.0036,0.0007,0.0012,-0.0008,-0.0032,-0.004,-0.0105,-0.0127,-0.0199,-0.0213,-0.0261,-0.0328,-0.0366,-0.0346,-0.0439,-0.0442,-0.0456,-0.0448,-0.042,-0.0455,-0.0432,-0.0432,-0.0433,0,0.0017,0.0032,0.0065,0.008,0.0083,0.0091,0.0096,0.0095,0.0067,0.0051,0.0011,-0.0037,-0.0092,-0.015,-0.0264,-0.0248,-0.0329,-0.0389,-0.0392,-0.0436,-0.0469,-0.047,-0.0462,-0.0438,-0.0437,-0.0437,-0.0437,0,0.0057,0.008,0.0111,0.0115,0.0123,0.0133,0.0137,0.012,0.014,0.0114,0.0139,0.0043,0.0035,-0.0093,-0.0226,-0.0244,-0.0344,-0.0382,-0.0479,-0.0481,-0.0487,-0.0489,-0.0466,-0.0466,-0.0466,-0.0466,-0.0466,0,0.0098,0.0123,0.0134,0.0151,0.0195,0.018,0.0225,0.0213,0.0228,0.0265,0.0194,0.0215,0.0049,-0.003,-0.0185,-0.0331,-0.0315,-0.0469,-0.0494,-0.0465,-0.0464,-0.0478,-0.0478,-0.0467,-0.0467,-0.0467,-0.0466,0,0.0135,0.0142,0.018,0.0201,0.0215,0.0244,0.0298,0.0336,0.0342,0.0397,0.0402,0.0361,0.0254,0.0078,-0.0107,-0.0247,-0.0409,-0.047,-0.0418,-0.0438,-0.0535,-0.0533,-0.0577,-0.0578,-0.0579,-0.058,-0.058,0,0.0156,0.0179,0.0222,0.0262,0.0274,0.0326,0.0372,0.0387,0.0436,0.0484,0.0523,0.0462,0.0415,0.0155,-0.0111,-0.0372,-0.0407,-0.0502,-0.0544,-0.0527,-0.0548,-0.0543,-0.0539,-0.0523,-0.0523,-0.0523,-0.0523,0,0.0194,0.0206,0.0242,0.0327,0.0381,0.0463,0.0526,0.0568,0.0596,0.0644,0.0679,0.0649,0.0428,0.0185,-0.014,-0.0317,-0.0464,-0.0514,-0.0504,-0.0502,-0.0481,-0.0499,-0.0496,-0.0524,-0.0524,-0.0524,-0.0524,-0.0524,0.022,0.0257,0.0313,0.0394,0.0471,0.0574,0.0635,0.0708,0.078,0.0837,0.0781,0.0765,0.0505,0.0104,-0.0189,-0.0473,-0.0483,-0.0581,-0.0579,-0.0577,-0.0566,-0.0548,-0.0602,-0.0602,-0.0602,-0.0602,-0.0603,0,0.0248,0.0301,0.0383,0.0472,0.0562,0.0617,0.0726,0.0785,0.0858,0.0927,0.0929,0.0702,0.0442,0.0165,-0.0267,-0.0546,-0.0558,-0.0609,-0.0568,-0.0565,-0.0564,-0.0551,-0.0583,-0.0584,-0.0584,-0.0585,0,0,0.0265,0.0336,0.0382,0.0526,0.0608,0.0735,0.0799,0.0889,0.0962,0.1016,0.1022,0.0939,0.058,0.0277,-0.0101,-0.0333,-0.0377,-0.0372,-0.0363,-0.0268,-0.0263,-0.0529,-0.0506,0,0,0,0,0]}],[{"header":{"parameterUnit":"m.s-1","parameterCategory":2,"la1":30.2991,"la2":30.254,"lo1":-89.0895,"lo2":-89.0444,"dy":0.0017,"dx":0.0017,"nx":28,"ny":28,"refTime":"2025-02-08T03:00:00:Z","depth":"4","parameterNumber":2,"parameterNumberName":"U-component_of_CURRENTS"},"data":[0,0,0,0,0,0,0,0,0,0,0,0,0,0,0,0,0,0,0,0,0,0,0,0,0,0,0,0,0,0,0,0,0,0,0,0,0,0,0,0,0,0,0,0,0,0,0,0,0,0,0,0,0,0,0,0,0,0,0.108,0.108,0,0.1146,0.1147,0.1148,0.1197,0.1197,0.1198,0.1198,0.1247,0.1247,0.1248,0,0,0,0,0,0,0,0,0,0,0,0,0,0.0979,0.098,0.1079,0.108,0.1081,0.1146,0.1147,0.1148,0.1197,0.1197,0.1198,0.1199,0.1246,0.1247,0.1248,0,0,0,0,0,0,0,0,0,0,0,0,0,0.103,0.0981,0.1079,0.1115,0.1119,0.1146,0.1147,0.1148,0.1196,0.1197,0.1198,0.1199,0.1246,0.1247,0.1248,0.1237,0,0,0.1251,0.1252,0,0,0,0,0,0,0,0,0.1027,0.1033,0.1109,0.1113,0.1117,0.1166,0.1129,0.1178,0.1196,0.1165,0.1198,0.12,0.1218,0.1222,0.123,0.1239,0.1241,0.1252,0.1252,0.1253,0.1253,0,0,0,0,0,0,0,0.1023,0.1031,0.1104,0.111,0.1115,0.1123,0.1131,0.1139,0.1184,0.1168,0.1172,0.1182,0.122,0.1229,0.1231,0.1242,0.1252,0.1252,0.1253,0.1254,0.131,0.1311,0,0,0,0,0,0,0.1019,0.1027,0.1102,0.1106,0.1075,0.1124,0.1133,0.1148,0.1185,0.1192,0.1181,0.1184,0.1226,0.123,0.1233,0.1292,0.1253,0.1254,0.1254,0.1309,0.131,0.1311,0,0,0,0,0,0,0.1017,0.1025,0.1099,0.1069,0.108,0.1125,0.1141,0.1149,0.1183,0.1195,0.1202,0.1211,0.1227,0.1232,0.1261,0.1292,0.1254,0.1255,0.1308,0.1309,0.1311,0.1365,0,0,0,0,0,0,0.1013,0.1024,0.1041,0.1069,0.1081,0.113,0.1141,0.1149,0.1187,0.1192,0.1222,0.1226,0.1228,0.126,0.1263,0.1292,0.1256,0.1307,0.1309,0.131,0.1362,0.1368,0.1373,0,0,0,0,0,0.101,0.1027,0.1041,0.1051,0.1101,0.1131,0.1138,0.1171,0.1188,0.1204,0.1227,0.1227,0.1272,0.1261,0.1264,0.1295,0.1306,0.1308,0.131,0.1359,0.1367,0.1373,0,0,0,0,0,0,0.0993,0.1034,0.1051,0.1081,0.1111,0.114,0.1162,0.1183,0.1214,0.1226,0.1236,0.1242,0.1277,0.1275,0.1264,0.1315,0.1289,0.1292,0.1326,0.1333,0.1338,0.133,0.1257,0,0,0,0,0,0.0996,0.1022,0.1058,0.1084,0.1101,0.1136,0.1156,0.1179,0.1207,0.1223,0.1244,0.1264,0.1282,0.13,0.1309,0.1338,0.1348,0.1359,0.1365,0.137,0.1364,0.1417,0.1427,0.1317,0.1317,0.1317,0,0,0.0996,0.1024,0.1039,0.1082,0.111,0.1135,0.1151,0.1189,0.1216,0.1221,0.1267,0.1281,0.1292,0.1325,0.1342,0.1333,0.1407,0.1372,0.1376,0.1368,0.142,0.1431,0.1441,0.1319,0.1318,0.1318,0,0,0.1001,0.1036,0.1056,0.1082,0.1128,0.115,0.1166,0.1208,0.1238,0.1276,0.1288,0.1322,0.135,0.1368,0.1378,0.1417,0.1429,0.1425,0.1456,0.1508,0.1518,0.1526,0.1559,0.157,0.1435,0.1435,0.1435,0,0.1,0.1033,0.1066,0.109,0.1116,0.1158,0.1184,0.1215,0.1263,0.1292,0.1297,0.1357,0.1369,0.1414,0.1429,0.1431,0.1457,0.1433,0.1517,0.1525,0.1533,0.1565,0.1576,0.1438,0.1438,0.1437,0.1437,0,0.1014,0.1046,0.1062,0.1107,0.1137,0.1168,0.1212,0.1253,0.1294,0.1326,0.1386,0.1406,0.145,0.1457,0.1456,0.152,0.1518,0.1515,0.1503,0.1548,0.1578,0.1589,0.1442,0.1441,0.144,0.1439,0,0,0.0992,0.1059,0.1065,0.1092,0.1152,0.1176,0.1229,0.1289,0.1338,0.1383,0.1447,0.1477,0.1508,0.152,0.1534,0.1569,0.1649,0.157,0.1572,0.1607,0.1763,0.1662,0.1665,0.1672,0.1674,0.1676,0.1764,0,0.0995,0.1038,0.1075,0.1121,0.1146,0.1204,0.1248,0.1309,0.137,0.1442,0.1484,0.1543,0.1529,0.1568,0.1605,0.1642,0.168,0.1625,0.1709,0.1711,0.162,0.1675,0.1683,0.1772,0.1775,0.1776,0.1778,0,0.0989,0.1024,0.1066,0.1136,0.1154,0.1194,0.1287,0.1332,0.1435,0.1489,0.1563,0.1605,0.1678,0.1656,0.1748,0.1721,0.1746,0.1758,0.1763,0.1653,0.1631,0.1715,0.1798,0.1796,0.1795,0.1793,0.1792,0,0.0947,0.1015,0.1051,0.1074,0.1155,0.1202,0.1257,0.1354,0.1413,0.1534,0.1595,0.1683,0.1744,0.1794,0.1834,0.1812,0.1919,0.1899,0.1824,0.1818,0.1858,0.1848,0.1956,0.1956,0.1956,0.1955,0.1955,0,0.0923,0.0953,0.1043,0.1061,0.1118,0.1188,0.1271,0.1338,0.1458,0.153,0.1623,0.1691,0.1783,0.1854,0.1875,0.1888,0.1968,0.1833,0.1837,0.1878,0.1869,0.1866,0.1855,0.1959,0.1958,0.1957,0.1957,0,0.0861,0.0918,0.0962,0.106,0.1097,0.1139,0.1276,0.1333,0.1451,0.1554,0.16,0.1733,0.1821,0.1887,0.1974,0.1931,0.1957,0.1937,0.1981,0.1986,0.1809,0.1799,0.1867,0.1864,0.1862,0.186,0.1858,0,0.083,0.0848,0.0946,0.0977,0.1029,0.1116,0.1173,0.1312,0.1381,0.1561,0.1598,0.1733,0.1806,0.1849,0.1924,0.1968,0.1937,0.1935,0.1853,0.1804,0.1802,0.1796,0.179,0.1854,0.1854,0.1853,0.1853,0,0.0769,0.0811,0.0844,0.091,0.0976,0.1046,0.1151,0.12,0.1355,0.1476,0.1571,0.1636,0.1728,0.1794,0.1838,0.1861,0.1931,0.191,0.1914,0.1836,0.179,0.1789,0.1786,0.1845,0.1846,0.1846,0.1847,0,0.0719,0.0723,0.0777,0.083,0.0903,0.096,0.103,0.1127,0.1216,0.1417,0.145,0.1591,0.1714,0.1741,0.1789,0.1802,0.1769,0.1702,0.1716,0.1726,0.1638,0.1556,0.1549,0,0,0,0,0,0.0669,0.0668,0.0701,0.0753,0.0825,0.0877,0.1002,0.108,0.124,0.1268,0.1363,0.1446,0.1532,0.1611,0.1596,0.1724,0.1768,0.1699,0.1694,0.18,0.1809,0.1719,0,0,0,0,0,0,0.0627,0.0648,0.0665,0.0686,0.0713,0.0787,0.0865,0.0971,0.1007,0.1171,0.1226,0.135,0.1452,0.1518,0.1562,0.1586,0.1553,0.1793,0.179,0.1795,0.1803,0.1811,0.1721,0,0,0,0,0]},{"header":{"parameterUnit":"m.s-1","parameterCategory":2,"la1":30.2991,"la2":30.254,"lo1":-89.0895,"lo2":-89.0444,"dy":0.0017,"dx":0.0017,"nx":28,"ny":28,"refTime":"2025-02-08T03:00:00:Z","depth":"4","parameterNumber":3,"parameterNumberName":"V-component_of_CURRENTS"},"data":[0,0,0,0,0,0,0,0,0,0,0,0,0,0,0,0,0,0,0,0,0,0,0,0,0,0,0,0,0,0,0,0,0,0,0,0,0,0,0,0,0,0,0,0,0,0,0,0,0,0,0,0,0,0,0,0,0,0,-0.0159,-0.0159,0,-0.0197,-0.0198,-0.0198,-0.0235,-0.0235,-0.0236,-0.0236,-0.0304,-0.0305,-0.0307,0,0,0,0,0,0,0,0,0,0,0,0,0,-0.0146,-0.0146,-0.0158,-0.0159,-0.0159,-0.0197,-0.0198,-0.0198,-0.0235,-0.0235,-0.0236,-0.0236,-0.0303,-0.0305,-0.0307,0,0,0,0,0,0,0,0,0,0,0,0,0,-0.0165,-0.0146,-0.0158,-0.0182,-0.0184,-0.0197,-0.0198,-0.0198,-0.0235,-0.0235,-0.0236,-0.0237,-0.0303,-0.0305,-0.0307,-0.0307,0,0,-0.0313,-0.0314,0,0,0,0,0,0,0,0,-0.0164,-0.0165,-0.0178,-0.018,-0.0183,-0.0212,-0.0218,-0.0236,-0.0235,-0.0216,-0.0236,-0.0237,-0.0275,-0.0279,-0.0285,-0.031,-0.0313,-0.0314,-0.0315,-0.0316,-0.0316,0,0,0,0,0,0,0,-0.0162,-0.0164,-0.0174,-0.0178,-0.0182,-0.0201,-0.0204,-0.0222,-0.0242,-0.0218,-0.022,-0.0224,-0.0277,-0.0283,-0.0287,-0.0314,-0.0313,-0.0315,-0.0317,-0.0317,-0.0348,-0.0348,0,0,0,0,0,0,-0.0154,-0.0162,-0.0173,-0.0175,-0.0174,-0.02,-0.0204,-0.0202,-0.0241,-0.0248,-0.0223,-0.0225,-0.0279,-0.0285,-0.029,-0.0293,-0.0316,-0.0318,-0.0319,-0.0349,-0.0348,-0.0348,0,0,0,0,0,0,-0.0154,-0.0155,-0.0171,-0.017,-0.0173,-0.0199,-0.0197,-0.0202,-0.0214,-0.0245,-0.0252,-0.023,-0.028,-0.0287,-0.0305,-0.0296,-0.0319,-0.0321,-0.0349,-0.0349,-0.0348,-0.0299,0,0,0,0,0,0,-0.0153,-0.0154,-0.0153,-0.0169,-0.0173,-0.0175,-0.0197,-0.0203,-0.0214,-0.0218,-0.0253,-0.026,-0.0281,-0.0302,-0.0307,-0.0299,-0.0322,-0.035,-0.0349,-0.0348,-0.0302,-0.0297,-0.0294,0,0,0,0,0,-0.0152,-0.0142,-0.0152,-0.0154,-0.0169,-0.0174,-0.0178,-0.0199,-0.0214,-0.0213,-0.0239,-0.0259,-0.03,-0.0303,-0.031,-0.0302,-0.035,-0.0349,-0.0348,-0.0303,-0.0298,-0.0294,0,0,0,0,0,0,-0.0134,-0.0146,-0.0157,-0.0151,-0.0161,-0.018,-0.0182,-0.0198,-0.0217,-0.0223,-0.0255,-0.0263,-0.0276,-0.0295,-0.0297,-0.0308,-0.0328,-0.0328,-0.0292,-0.0287,-0.0283,-0.0264,-0.0324,0,0,0,0,0,-0.0129,-0.0127,-0.0141,-0.0137,-0.0141,-0.0163,-0.0169,-0.0182,-0.02,-0.021,-0.0234,-0.0258,-0.0275,-0.0286,-0.0305,-0.0311,-0.0342,-0.031,-0.0306,-0.0303,-0.0291,-0.0331,-0.033,-0.0345,-0.0345,-0.0345,0,0,-0.0122,-0.0128,-0.0127,-0.0134,-0.0145,-0.0138,-0.0168,-0.0173,-0.0168,-0.0214,-0.0218,-0.0246,-0.0274,-0.0281,-0.0288,-0.0297,-0.0316,-0.0301,-0.0298,-0.0288,-0.033,-0.0329,-0.0328,-0.0344,-0.0344,-0.0344,0,0,-0.0098,-0.011,-0.0098,-0.0102,-0.0114,-0.0124,-0.0124,-0.0142,-0.0152,-0.016,-0.019,-0.0211,-0.0239,-0.0253,-0.0264,-0.0248,-0.0294,-0.0258,-0.0222,-0.0261,-0.026,-0.026,-0.0305,-0.0309,-0.0255,-0.0255,-0.0255,0,-0.0089,-0.0074,-0.0096,-0.0083,-0.0079,-0.0113,-0.0095,-0.0106,-0.0129,-0.0134,-0.0155,-0.0195,-0.0221,-0.0226,-0.022,-0.0238,-0.0273,-0.0238,-0.0256,-0.0256,-0.0256,-0.0303,-0.0308,-0.0253,-0.0253,-0.0253,-0.0253,0,-0.0055,-0.0044,-0.0036,-0.0029,-0.0029,-0.002,-0.0035,-0.0041,-0.0062,-0.0078,-0.0095,-0.0134,-0.0158,-0.017,-0.019,-0.02,-0.023,-0.0248,-0.0268,-0.0252,-0.0303,-0.0309,-0.0249,-0.025,-0.0251,-0.0251,0,0,-0.0029,-0.0014,-0.0011,0.0004,0.0001,0.0008,0.0017,0.0015,0.0017,-0.0015,-0.0018,-0.0047,-0.0082,-0.0096,-0.013,-0.016,-0.0199,-0.0201,-0.0204,-0.0244,-0.0297,-0.0286,-0.0292,-0.0226,-0.0227,-0.0227,-0.0334,0,0.0005,0.0044,0.0042,0.008,0.0099,0.0081,0.0094,0.0085,0.0061,0.0046,0.0003,-0.0018,-0.005,-0.007,-0.0102,-0.0178,-0.0211,-0.0169,-0.0306,-0.031,-0.0301,-0.0297,-0.0229,-0.0339,-0.034,-0.0342,-0.0342,0,0.004,0.0063,0.0108,0.0138,0.0145,0.016,0.0169,0.0173,0.0143,0.0123,0.009,0.0043,-0.0001,-0.0036,-0.0146,-0.0121,-0.0198,-0.0257,-0.0263,-0.027,-0.031,-0.0357,-0.0354,-0.0353,-0.0352,-0.0352,-0.0351,0,0.0069,0.011,0.0149,0.016,0.0185,0.0201,0.0208,0.0193,0.0197,0.0161,0.0144,0.0085,0.0036,-0.0049,-0.017,-0.0167,-0.0303,-0.0318,-0.0378,-0.038,-0.0381,-0.038,-0.0392,-0.0392,-0.0392,-0.0391,-0.0391,0,0.0107,0.0138,0.0166,0.0187,0.0231,0.0233,0.0263,0.0257,0.0243,0.0242,0.018,0.0153,0.0027,-0.0067,-0.0164,-0.029,-0.0304,-0.0367,-0.0401,-0.0359,-0.0355,-0.0386,-0.0384,-0.0395,-0.0394,-0.0394,-0.0393,0,0.0128,0.0148,0.0194,0.0231,0.0246,0.0272,0.0301,0.0312,0.0295,0.0286,0.0273,0.0184,0.0065,-0.0061,-0.0221,-0.029,-0.0405,-0.0448,-0.0398,-0.0429,-0.046,-0.0454,-0.0521,-0.0521,-0.0521,-0.0522,-0.0522,0,0.0143,0.0168,0.0222,0.0248,0.0266,0.0305,0.0327,0.0335,0.0345,0.0305,0.0297,0.0185,0.0113,-0.0095,-0.0231,-0.0411,-0.0433,-0.0498,-0.0463,-0.0444,-0.0471,-0.0464,-0.0458,-0.0522,-0.0522,-0.0523,-0.0523,0,0.0163,0.0178,0.0212,0.0266,0.03,0.0346,0.0377,0.0392,0.0389,0.0376,0.032,0.0211,0.0072,-0.0085,-0.0232,-0.0359,-0.0453,-0.0502,-0.0502,-0.0469,-0.0447,-0.0472,-0.0465,-0.0524,-0.0524,-0.0523,-0.0523,0,0.0165,0.0188,0.0226,0.0275,0.0321,0.0362,0.0388,0.04,0.0411,0.0377,0.0353,0.0213,0.0128,-0.0061,-0.0194,-0.0317,-0.0343,-0.0375,-0.0382,-0.0383,-0.0303,-0.0252,-0.0293,0,0,0,0,0,0.016,0.0182,0.023,0.0283,0.0331,0.0361,0.0405,0.0425,0.0428,0.0402,0.0386,0.0268,0.007,-0.0023,-0.0142,-0.0212,-0.0377,-0.0357,-0.042,-0.053,-0.0529,-0.0456,0,0,0,0,0,0,0.0153,0.019,0.0221,0.0276,0.0314,0.0367,0.0397,0.0407,0.0402,0.039,0.0292,0.0243,0.0052,0.0141,-0.0143,-0.0184,-0.0239,-0.0449,-0.0451,-0.0531,-0.0529,-0.0528,-0.0453,0,0,0,0,0]}]]